period_start,C,m1,H,J0,J1,J2,J3,J4,J5,JA,JB,JC,JD,JJ,JK,JN,#
2015-05-09 00:03:27,-0.00,0.57,0.00,23.42,27.20,29.96,4.75,27.06,1024.01,2034.00,3176.46,3158.96,3408.90,349.74,349.42,16.46,0000 0000 0000 0000 000000
2015-05-09 00:08:28,0.03,0.57,0.00,23.39,27.20,29.96,4.83,27.07,1024.06,2034.01,3176.18,3158.85,3408.66,350.05,349.77,16.48,0000 0000 0000 0000 000000
2015-05-09 00:13:29,0.02,0.57,0.00,23.37,27.20,29.91,4.80,27.04,1024.20,2034.00,3176.02,3158.68,3408.37,350.11,349.92,16.51,0000 0000 0000 0000 000000
2015-05-09 00:18:31,0.02,0.57,0.00,23.37,27.20,29.95,4.79,26.92,1024.39,2034.01,3176.00,3158.18,3408.05,349.78,349.70,16.54,0000 0000 0000 0000 000000
2015-05-09 00:23:32,0.00,0.57,0.00,23.39,27.20,29.91,4.71,26.87,1024.43,2034.00,3175.98,3158.01,3408.00,349.93,349.86,16.57,0000 0000 0000 0000 000000
2015-05-09 00:28:33,0.01,0.57,0.00,23.40,27.20,29.94,4.82,26.81,1024.43,2034.00,3175.73,3158.00,3408.00,350.00,349.77,16.60,0000 0000 0000 0000 000000
2015-05-09 00:33:35,0.01,0.57,0.00,23.39,27.20,29.93,4.84,26.94,1024.43,2034.00,3175.12,3158.00,3407.99,350.05,349.90,16.63,0000 0000 0000 0000 000000
2015-05-09 00:38:35,0.00,0.57,0.00,23.38,27.20,29.93,4.88,27.05,1024.43,2034.00,3175.04,3158.00,3407.96,350.19,350.29,16.66,0000 0000 0000 0000 000000
2015-05-09 00:43:37,0.00,0.57,0.00,23.41,27.20,29.92,4.75,26.95,1024.38,2034.00,3175.00,3157.99,3407.94,349.61,349.39,16.69,0000 0000 0000 0000 000000
2015-05-09 00:48:38,0.01,0.57,0.00,23.42,27.20,29.94,4.80,26.99,1024.21,2034.00,3175.00,3157.93,3407.52,349.93,349.91,16.72,0000 0000 0000 0000 000000
2015-05-09 00:53:40,0.02,0.57,0.00,23.42,27.20,29.93,4.80,26.88,1024.43,2034.00,3174.97,3157.72,3407.19,350.37,350.25,16.75,0000 0000 0000 0000 000000
2015-05-09 00:58:41,0.04,0.57,0.00,23.42,27.20,29.94,4.80,26.92,1024.43,2034.01,3174.49,3157.31,3407.06,349.92,349.74,16.78,0000 0000 0000 0000 000000
2015-05-09 01:03:42,0.01,0.57,0.00,23.41,27.20,29.93,4.80,26.88,1024.43,2034.00,3174.26,3157.08,3407.00,349.89,349.80,16.81,0000 0000 0000 0000 000000
2015-05-09 01:08:43,0.01,0.57,0.00,23.43,27.20,29.94,4.82,26.87,1024.43,2034.00,3174.05,3157.03,3407.00,350.63,350.34,16.84,0000 0000 0000 0000 000000
2015-05-09 01:13:45,0.00,0.57,0.00,23.45,27.20,29.92,4.84,27.10,1024.37,2034.01,3174.00,3157.00,3406.97,350.08,349.81,16.87,0000 0000 0000 0000 000000
2015-05-09 01:18:46,0.00,0.57,0.00,23.45,27.20,29.90,4.87,26.86,1024.43,2034.00,3174.00,3157.00,3406.85,350.79,350.50,16.89,0000 0000 0000 0000 000000
2015-05-09 01:23:47,0.02,0.57,0.00,23.42,27.20,29.91,4.92,26.91,1024.43,2034.00,3173.96,3156.97,3406.15,350.32,350.31,16.92,0000 0000 0000 0000 000000
2015-05-09 01:28:48,0.01,0.57,0.00,23.43,27.20,29.94,4.82,26.88,1024.44,2034.00,3173.86,3156.97,3406.07,349.94,349.99,16.95,0000 0000 0000 0000 000000
2015-05-09 01:33:49,0.04,0.58,0.00,23.45,27.20,29.94,4.77,26.80,1024.43,2034.00,3173.14,3156.63,3406.03,349.89,349.71,16.98,0000 0000 0000 0000 000000
2015-05-09 01:38:51,0.02,0.58,0.00,23.46,27.20,29.95,4.81,27.08,1024.43,2033.99,3173.01,3156.14,3406.00,350.03,349.86,17.01,0000 0000 0000 0000 000000
2015-05-09 01:43:52,0.00,0.58,0.00,23.44,27.20,29.90,4.78,27.03,1024.43,2033.99,3173.00,3156.08,3406.00,350.14,350.01,17.04,0000 0000 0000 0000 000000
2015-05-09 01:48:53,0.00,0.58,0.00,23.47,27.20,29.94,4.81,26.93,1024.44,2034.00,3172.92,3156.02,3405.99,349.84,349.63,17.07,0000 0000 0000 0000 000000
2015-05-09 01:53:54,0.00,0.58,0.00,23.48,27.20,29.93,4.80,26.96,1024.44,2034.00,3172.93,3156.00,3405.91,349.80,349.41,17.10,0000 0000 0000 0000 000000
2015-05-09 01:58:55,0.03,0.58,0.00,23.51,27.20,29.93,4.83,26.93,1024.45,2034.00,3172.39,3156.00,3405.58,349.79,349.66,17.13,0000 0000 0000 0000 000000
2015-05-09 02:03:57,0.01,0.58,0.00,23.54,27.20,29.93,4.84,27.02,1024.44,2034.00,3172.06,3155.98,3405.15,350.17,349.97,17.16,0000 0000 0000 0000 000000
2015-05-09 02:08:58,0.01,0.58,0.00,23.56,27.21,29.96,4.76,27.06,1024.44,2034.00,3171.99,3155.86,3405.05,349.45,349.14,17.19,0000 0000 0000 0000 000000
2015-05-09 02:13:59,0.02,0.58,0.00,23.56,27.21,29.96,4.86,27.01,1024.45,2034.00,3171.98,3155.42,3405.00,350.66,350.65,17.22,0000 0000 0000 0000 000000
2015-05-09 02:19:01,0.01,0.58,0.00,23.58,27.21,29.97,4.84,26.96,1024.47,2034.00,3171.89,3155.13,3405.00,349.96,349.64,17.25,0000 0000 0000 0000 000000
2015-05-09 02:24:02,0.01,0.58,0.00,23.62,27.22,29.98,4.80,26.94,1024.44,2034.00,3171.52,3155.05,3404.97,349.94,349.36,17.28,0000 0000 0000 0000 000000
2015-05-09 02:29:04,0.02,0.58,0.00,23.62,27.22,30.00,4.82,27.01,1024.43,2034.00,3171.17,3155.00,3404.61,350.15,349.80,17.30,0000 0000 0000 0000 000000
2015-05-09 02:34:05,0.01,0.58,0.00,23.62,27.22,30.00,4.79,27.03,1024.44,2034.00,3171.05,3155.00,3404.07,349.89,349.67,17.33,0000 0000 0000 0000 000000
2015-05-09 02:39:06,0.00,0.58,0.00,23.66,27.22,29.99,4.82,27.19,1024.43,2034.00,3170.97,3154.97,3404.01,350.31,349.72,17.36,0000 0000 0000 0000 000000
2015-05-09 02:44:08,-0.00,0.58,0.00,23.66,27.22,29.99,4.78,27.00,1024.43,2034.00,3170.95,3154.97,3404.01,350.34,350.01,17.39,0000 0000 0000 0000 000000
2015-05-09 02:49:09,0.01,0.58,0.00,23.65,27.22,29.98,4.85,27.00,1024.43,2034.00,3170.73,3154.90,3404.00,350.41,350.06,17.42,0000 0000 0000 0000 000000
2015-05-09 02:54:10,0.03,0.58,0.00,23.68,27.22,29.97,4.82,27.00,1024.44,2034.00,3170.19,3154.55,3403.99,350.07,349.61,17.45,0000 0000 0000 0000 000000
2015-05-09 02:59:11,0.02,0.58,0.00,23.71,27.22,29.97,4.79,27.06,1024.46,2034.00,3170.04,3154.10,3403.82,349.96,349.27,17.48,0000 0000 0000 0000 000000
2015-05-09 03:04:13,0.01,0.58,0.00,23.69,27.22,29.96,4.73,26.92,1024.45,2034.00,3170.00,3154.02,3403.45,349.76,349.21,17.51,0000 0000 0000 0000 000000
2015-05-09 03:09:14,0.00,0.58,0.00,23.72,27.22,30.01,4.83,27.02,1024.44,2034.00,3169.97,3154.00,3403.06,350.15,349.53,17.54,0000 0000 0000 0000 000000
2015-05-09 03:14:15,0.02,0.58,0.00,23.76,27.22,29.97,4.79,27.11,1024.44,2034.00,3169.66,3153.99,3403.00,349.79,349.21,17.57,0000 0000 0000 0000 000000
2015-05-09 03:19:17,0.01,0.58,0.00,23.75,27.22,29.95,4.84,26.98,1024.43,2034.00,3169.19,3153.97,3403.00,350.17,349.64,17.60,0000 0000 0000 0000 000000
2015-05-09 03:24:18,0.03,0.58,0.00,23.73,27.22,29.97,4.76,26.99,1024.44,2033.99,3169.01,3153.62,3402.99,349.93,349.24,17.63,0000 0000 0000 0000 000000
2015-05-09 03:29:19,0.02,0.59,0.00,23.75,27.22,29.96,4.73,27.12,1024.43,2033.99,3169.00,3153.07,3402.74,349.96,349.28,17.66,0000 0000 0000 0000 000000
2015-05-09 03:34:21,0.02,0.59,0.00,23.76,27.22,29.93,4.79,27.09,1024.43,2033.99,3168.97,3153.02,3402.22,350.29,349.68,17.69,0000 0000 0000 0000 000000
2015-05-09 03:39:22,0.00,0.59,0.00,23.75,27.22,29.94,4.79,27.15,1024.43,2033.99,3168.85,3153.00,3402.01,350.22,349.74,17.71,0000 0000 0000 0000 000000
2015-05-09 03:44:23,0.00,0.59,0.00,23.78,27.22,29.96,4.76,27.05,1024.43,2033.99,3168.71,3153.00,3402.00,350.20,349.74,17.74,0000 0000 0000 0000 000000
2015-05-09 03:49:24,0.01,0.59,0.00,23.75,27.22,29.90,4.81,27.04,1024.43,2033.99,3168.18,3153.00,3401.99,350.28,349.74,17.77,0000 0000 0000 0000 000000
2015-05-09 03:54:26,0.00,0.59,0.00,23.75,27.22,29.92,4.80,27.01,1024.43,2033.98,3168.00,3152.97,3401.98,349.82,349.30,17.80,0000 0000 0000 0000 000000
2015-05-09 03:59:27,0.00,0.59,0.00,23.76,27.22,29.92,4.74,26.87,1024.43,2033.99,3167.99,3152.93,3401.88,349.98,349.41,17.83,0000 0000 0000 0000 000000
2015-05-09 04:04:28,0.04,0.59,0.00,23.74,27.22,29.86,4.84,27.08,1024.41,2033.99,3167.95,3152.60,3401.41,350.18,349.80,17.86,0000 0000 0000 0000 000000
2015-05-09 04:09:29,0.03,0.59,0.00,23.75,27.22,29.90,4.83,26.98,1024.42,2033.98,3167.62,3152.07,3401.03,350.07,349.50,17.89,0000 0000 0000 0000 000000
2015-05-09 04:14:30,0.01,0.59,0.00,23.78,27.22,29.90,4.77,26.98,1024.43,2033.99,3167.10,3152.00,3401.02,350.05,349.52,17.92,0000 0000 0000 0000 000000
2015-05-09 04:19:31,-0.00,0.59,0.00,23.70,27.22,29.90,4.77,26.95,1024.43,2033.98,3166.99,3152.00,3401.00,349.94,349.40,17.95,0000 0000 0000 0000 000000
2015-05-09 04:24:33,0.00,0.59,0.00,23.70,27.22,29.82,4.77,27.02,1024.42,2033.99,3166.98,3152.00,3400.99,349.43,348.88,17.98,0000 0000 0000 0000 000000
2015-05-09 04:29:34,0.00,0.59,0.00,23.78,27.22,29.84,4.81,27.04,1024.43,2033.99,3166.88,3151.99,3400.95,350.26,349.63,18.01,0000 0000 0000 0000 000000
2015-05-09 04:34:35,0.03,0.59,0.00,23.79,27.22,29.83,4.78,27.17,1024.43,2033.98,3166.23,3151.92,3400.64,349.80,349.21,18.04,0000 0000 0000 0000 000000
2015-05-09 04:39:36,0.03,0.59,0.00,23.76,27.22,29.80,4.80,27.04,1024.42,2033.98,3166.00,3151.50,3400.16,349.60,348.89,18.07,0000 0000 0000 0000 000000
2015-05-09 04:44:38,0.01,0.59,0.00,23.81,27.22,29.85,4.81,26.96,1024.43,2033.98,3166.00,3151.37,3400.04,349.96,349.03,18.10,0000 0000 0000 0000 000000
2015-05-09 04:49:39,0.00,0.59,0.00,23.80,27.22,29.78,4.85,26.95,1024.42,2033.99,3166.00,3151.18,3400.01,350.26,349.71,18.12,0000 0000 0000 0000 000000
2015-05-09 04:54:41,0.00,0.59,0.00,23.70,27.22,29.71,4.82,26.99,1024.35,2033.99,3165.98,3151.05,3400.00,350.17,349.57,18.15,0000 0000 0000 0000 000000
2015-05-09 04:59:42,0.00,0.59,0.00,23.73,27.22,29.79,4.77,26.98,1024.39,2033.99,3165.87,3151.01,3400.00,349.99,349.71,18.18,0000 0000 0000 0000 000000
2015-05-09 05:04:43,0.01,0.59,0.00,23.79,27.22,29.85,4.75,26.88,1024.43,2033.99,3165.66,3151.00,3400.00,350.06,349.49,18.21,0000 0000 0000 0000 000000
2015-05-09 05:09:44,0.01,0.59,0.00,23.69,27.22,29.80,4.80,26.93,1024.41,2033.99,3165.09,3151.00,3399.98,349.87,349.17,18.24,0000 0000 0000 0000 000000
2015-05-09 05:14:45,0.00,0.59,0.00,23.71,27.21,29.75,4.82,26.95,1024.42,2033.99,3165.01,3151.00,3399.90,349.91,349.42,18.27,0000 0000 0000 0000 000000
2015-05-09 05:19:47,0.01,0.59,0.00,23.81,27.20,29.79,4.85,26.99,1024.41,2033.99,3165.01,3150.99,3399.65,350.56,349.75,18.30,0000 0000 0000 0000 000000
2015-05-09 05:24:48,0.01,0.60,0.00,23.68,27.20,29.76,4.77,26.95,1024.41,2033.99,3164.99,3150.97,3399.14,349.87,349.47,18.33,0000 0000 0000 0000 000000
2015-05-09 05:29:49,0.00,0.60,0.00,23.59,27.20,29.75,4.81,26.99,1024.38,2033.99,3164.94,3150.94,3399.07,349.98,349.64,18.36,0000 0000 0000 0000 000000
2015-05-09 05:34:51,0.01,0.60,0.00,23.75,27.20,29.77,4.79,26.93,1024.41,2033.99,3164.59,3150.84,3399.02,349.92,349.35,18.39,0000 0000 0000 0000 000000
2015-05-09 05:39:52,0.04,0.60,0.00,23.78,27.20,29.77,4.85,26.99,1024.35,2033.99,3164.08,3150.29,3399.00,350.48,349.95,18.42,0000 0000 0000 0000 000000
2015-05-09 05:44:53,0.00,0.60,0.00,23.61,27.20,29.72,4.77,26.94,1024.28,2033.99,3164.05,3150.25,3399.00,349.92,349.32,18.45,0000 0000 0000 0000 000000
2015-05-09 05:49:55,0.01,0.60,0.00,23.63,27.20,29.70,4.82,27.01,1024.15,2033.99,3164.00,3150.06,3398.99,350.26,349.86,18.48,0000 0000 0000 0000 000000
2015-05-09 05:54:56,0.00,0.60,0.00,23.75,27.20,29.67,4.78,26.95,1024.23,2033.99,3163.99,3150.01,3398.95,349.67,349.07,18.51,0000 0000 0000 0000 000000
2015-05-09 05:59:57,0.03,0.60,0.00,23.64,27.19,29.64,4.83,26.94,1024.26,2033.99,3163.51,3150.00,3398.60,350.01,349.48,18.53,0000 0000 0000 0000 000000
2015-05-09 06:04:58,0.01,0.60,0.00,23.69,27.18,29.73,4.78,26.95,1024.31,2033.99,3163.29,3150.00,3398.16,349.85,349.47,18.56,0000 0000 0000 0000 000000
2015-05-09 06:09:59,0.01,0.60,0.00,23.71,27.17,29.72,4.75,26.86,1024.28,2033.99,3163.03,3149.99,3398.04,350.08,349.57,18.59,0000 0000 0000 0000 000000
2015-05-09 06:15:00,-0.00,0.60,0.00,23.56,27.17,29.64,4.76,26.94,1024.19,2033.99,3163.00,3149.96,3398.01,349.86,349.50,18.62,0000 0000 0000 0000 000000
2015-05-09 06:20:02,0.00,0.60,0.00,23.61,27.17,29.68,4.85,27.00,1024.07,2033.99,3163.00,3149.87,3398.00,349.84,349.36,18.65,0000 0000 0000 0000 000000
2015-05-09 06:25:03,0.01,0.60,0.00,23.73,27.17,29.69,4.82,26.86,1024.26,2033.99,3162.99,3149.64,3398.00,350.33,349.60,18.68,0000 0000 0000 0000 000000
2015-05-09 06:30:04,0.02,0.60,0.00,23.62,27.17,29.68,4.78,27.01,1023.99,2033.99,3162.93,3149.38,3398.00,349.71,348.97,18.71,0000 0000 0000 0000 000000
2015-05-09 06:35:06,0.02,0.60,0.00,23.52,27.17,29.61,4.74,27.02,1023.96,2033.99,3162.58,3149.15,3397.98,349.85,349.52,18.74,0000 0000 0000 0000 000000
2015-05-09 06:40:07,0.01,0.60,0.00,23.63,27.15,29.64,4.78,27.02,1023.96,2033.99,3162.07,3149.03,3397.96,350.06,349.37,18.77,0000 0000 0000 0000 000000
2015-05-09 06:45:08,0.00,0.60,0.00,23.53,27.15,29.67,4.83,26.95,1023.99,2033.99,3162.02,3149.02,3397.91,350.28,349.91,18.80,0000 0000 0000 0000 000000
2015-05-09 06:50:09,0.00,0.60,0.00,23.61,27.15,29.62,4.79,26.88,1024.04,2034.00,3162.00,3149.01,3397.80,349.86,349.51,18.83,0000 0000 0000 0000 000000
2015-05-09 06:55:11,0.02,0.60,0.00,23.67,27.15,29.62,4.79,26.94,1023.97,2034.01,3161.99,3149.00,3397.35,350.23,349.64,18.86,0000 0000 0000 0000 000000
2015-05-09 07:00:12,0.01,0.60,0.00,23.50,27.15,29.58,4.81,26.92,1023.97,2034.01,3161.90,3149.00,3397.12,349.92,349.47,18.89,0000 0000 0000 0000 000000
2015-05-09 07:05:13,0.00,0.60,0.00,23.60,27.14,29.68,4.85,26.98,1023.95,2034.00,3161.83,3148.99,3397.07,350.65,350.22,18.92,0000 0000 0000 0000 000000
2015-05-09 07:10:14,0.02,0.60,0.00,23.65,27.14,29.69,4.76,26.91,1023.95,2034.02,3161.32,3148.99,3397.01,349.53,348.91,18.94,0000 0000 0000 0000 000000
2015-05-09 07:15:16,0.00,0.60,0.00,23.53,27.13,29.66,4.85,26.99,1023.94,2034.03,3161.09,3148.97,3397.00,350.38,349.84,18.97,0000 0000 0000 0000 000000
2015-05-09 07:20:18,0.01,0.60,0.00,23.52,27.12,29.65,4.81,26.93,1023.94,2034.02,3161.01,3148.84,3397.00,349.61,349.20,19.00,0000 0000 0000 0000 000000
2015-05-09 07:25:19,0.01,0.60,0.00,23.64,27.12,29.57,4.81,26.98,1023.94,2034.02,3161.00,3148.54,3396.99,350.01,349.54,19.03,0000 0000 0000 0000 000000
2015-05-09 07:30:20,0.01,0.60,0.00,23.54,27.12,29.59,4.73,26.98,1023.94,2034.03,3160.93,3148.23,3396.98,349.95,349.51,19.06,0000 0000 0000 0000 000000
2015-05-09 07:35:22,0.02,0.60,0.00,23.50,27.12,29.57,4.73,26.94,1023.93,2034.03,3160.59,3148.03,3396.92,349.53,349.12,19.09,0000 0000 0000 0000 000000
2015-05-09 07:40:23,0.02,0.61,0.00,23.56,27.12,29.60,4.74,26.99,1023.94,2034.05,3160.04,3148.01,3396.66,349.84,349.34,19.12,0000 0000 0000 0000 000000
2015-05-09 07:45:24,0.01,0.61,0.00,23.42,27.12,29.65,4.80,26.84,1023.93,2034.12,3160.02,3148.01,3396.70,350.03,349.62,19.15,0000 0000 0000 0000 000000
2015-05-09 07:50:25,0.01,0.61,0.00,23.51,27.11,29.61,4.77,26.82,1023.90,2034.20,3160.01,3148.01,3396.38,350.02,349.52,19.18,0000 0000 0000 0000 000000
2015-05-09 07:55:27,0.02,0.61,0.00,23.58,27.10,29.64,4.78,26.84,1023.93,2034.22,3160.00,3147.99,3396.10,349.58,349.13,19.21,0000 0000 0000 0000 000000
2015-05-09 08:00:28,-0.01,0.61,0.00,23.30,27.10,29.72,4.83,26.95,1023.90,2034.22,3159.95,3147.99,3396.01,350.16,350.07,19.24,0000 0000 0000 0000 000000
2015-05-09 08:05:30,0.01,0.61,0.00,23.15,27.10,29.83,4.80,26.88,1023.78,2034.25,3159.63,3147.98,3396.00,349.90,349.71,19.27,0000 0000 0000 0000 000000
2015-05-09 08:10:31,0.02,0.61,0.00,23.07,27.09,29.79,4.78,26.88,1023.70,2034.22,3159.10,3147.92,3396.00,349.51,349.52,19.30,0000 0000 0000 0000 000000
2015-05-09 08:15:32,0.05,0.61,0.00,23.20,27.07,29.77,4.79,26.83,1023.66,2034.40,3159.04,3147.90,3396.00,349.90,349.55,19.33,0000 0000 0000 0000 000000
2015-05-09 08:20:33,0.02,0.61,0.00,23.40,27.07,29.67,4.79,26.92,1023.52,2034.54,3159.00,3147.36,3395.96,349.88,349.41,19.36,0000 0000 0000 0000 000000
2015-05-09 08:25:35,0.03,0.61,0.00,23.60,27.07,29.64,4.75,26.86,1023.77,2034.47,3158.99,3147.06,3395.55,349.63,349.04,19.38,0000 0000 0000 0000 000000
2015-05-09 08:30:36,-0.04,0.61,0.00,23.72,27.07,29.78,4.79,26.85,1023.49,2034.27,3158.95,3147.01,3395.08,350.06,349.34,19.41,0000 0000 0000 0000 000000
2015-05-09 08:35:37,0.02,0.61,0.00,23.60,27.08,29.76,4.78,26.85,1023.52,2034.23,3158.53,3147.00,3395.01,349.88,349.22,19.44,0000 0000 0000 0000 000000
2015-05-09 08:40:38,-0.00,0.61,0.00,23.69,27.09,29.80,4.83,26.88,1023.47,2034.12,3158.05,3146.97,3395.00,350.29,349.20,19.47,0000 0000 0000 0000 000000
2015-05-09 08:45:40,0.04,0.61,0.00,23.66,27.10,29.80,4.78,26.79,1023.45,2034.32,3158.02,3146.99,3395.00,349.26,348.46,19.50,0000 0000 0000 0000 000000
2015-05-09 08:50:40,0.02,0.61,0.00,23.43,27.10,29.91,4.81,26.74,1023.47,2034.52,3158.00,3146.98,3395.00,350.30,349.87,19.53,0000 0000 0000 0000 000000
2015-05-09 08:55:42,-0.02,0.61,0.00,23.31,27.10,30.00,4.83,26.82,1023.45,2034.29,3157.98,3146.78,3394.95,350.28,350.13,19.56,0000 0000 0000 0000 000000
2015-05-09 09:00:43,0.02,0.61,0.00,23.19,27.10,29.94,4.73,26.83,1023.45,2034.18,3157.92,3146.42,3394.78,349.94,349.60,19.59,0000 0000 0000 0000 000000
2015-05-09 09:05:44,0.03,0.61,0.00,23.19,27.10,29.88,4.78,26.88,1023.44,2034.21,3157.54,3146.14,3394.37,349.46,349.37,19.62,0000 0000 0000 0000 000000
2015-05-09 09:10:45,0.03,0.61,0.00,23.40,27.10,29.82,4.81,26.82,1023.43,2034.28,3157.15,3146.02,3394.14,349.99,349.54,19.65,0000 0000 0000 0000 000000
2015-05-09 09:15:47,-0.03,0.61,0.00,23.60,27.10,29.78,4.78,26.88,1023.41,2034.14,3157.04,3146.00,3394.00,349.82,349.06,19.68,0000 0000 0000 0000 000000
2015-05-09 09:20:48,0.01,0.61,0.00,23.60,27.10,29.88,4.77,26.99,1023.30,2034.09,3157.00,3146.00,3394.00,349.97,348.97,19.71,0000 0000 0000 0000 000000
2015-05-09 09:25:49,-0.00,0.61,0.00,23.62,27.10,29.85,4.77,26.84,1023.43,2034.10,3156.98,3145.98,3393.99,349.85,349.27,19.74,0000 0000 0000 0000 000000
2015-05-09 09:30:50,0.03,0.61,0.00,23.71,27.11,29.88,4.84,26.88,1023.29,2034.16,3156.89,3145.97,3393.97,350.22,349.34,19.76,0000 0000 0000 0000 000000
2015-05-09 09:35:51,0.02,0.61,0.00,23.48,27.12,29.93,4.82,26.88,1023.41,2034.16,3156.39,3145.86,3393.83,350.05,349.42,19.79,0000 0000 0000 0000 000000
2015-05-09 09:40:53,0.04,0.62,0.00,23.28,27.12,30.01,4.74,26.86,1023.12,2034.09,3156.01,3145.29,3393.20,349.68,349.31,19.82,0000 0000 0000 0000 000000
2015-05-09 09:45:54,0.02,0.62,0.00,23.19,27.12,29.98,4.78,26.73,1023.02,2034.11,3156.00,3145.15,3393.03,350.38,349.77,19.85,0000 0000 0000 0000 000000
2015-05-09 09:50:55,-0.00,0.62,0.00,23.13,27.11,29.91,4.76,26.82,1022.99,2034.13,3156.00,3145.06,3393.02,349.86,349.67,19.88,0000 0000 0000 0000 000000
2015-05-09 09:55:56,0.00,0.62,0.00,23.34,27.11,29.90,4.79,26.77,1022.99,2034.09,3155.98,3145.02,3393.00,349.86,349.23,19.91,0000 0000 0000 0000 000000
2015-05-09 10:00:58,0.01,0.62,0.00,23.60,27.12,29.84,4.87,26.82,1022.98,2034.11,3155.93,3145.00,3392.99,350.32,349.37,19.94,0000 0000 0000 0000 000000
2015-05-09 10:05:59,0.01,0.62,0.00,23.59,27.12,29.90,4.78,26.88,1023.14,2034.09,3155.47,3145.00,3392.98,349.83,349.23,19.97,0000 0000 0000 0000 000000
2015-05-09 10:11:00,0.00,0.62,0.00,23.64,27.12,29.93,4.73,26.82,1022.99,2034.03,3155.02,3144.97,3392.90,350.01,349.12,20.00,0000 0000 0000 0000 000000
2015-05-09 10:16:01,0.01,0.62,0.00,23.62,27.12,29.93,4.80,26.75,1022.99,2034.04,3155.00,3144.91,3392.51,349.99,348.90,20.03,0000 0000 0000 0000 000000
2015-05-09 10:21:02,0.03,0.62,0.00,23.38,27.12,29.99,4.77,26.93,1022.97,2034.04,3154.98,3144.69,3392.17,349.72,349.23,20.06,0000 0000 0000 0000 000000
2015-05-09 10:26:04,0.01,0.62,0.00,23.27,27.12,30.02,4.82,26.80,1022.97,2034.06,3154.94,3144.49,3392.06,350.21,349.95,20.09,0000 0000 0000 0000 000000
2015-05-09 10:31:05,0.02,0.62,0.00,23.18,27.12,30.03,4.85,26.87,1022.96,2034.08,3154.67,3144.23,3392.02,350.26,349.91,20.12,0000 0000 0000 0000 000000
2015-05-09 10:36:06,0.01,0.62,0.00,23.11,27.12,30.00,4.75,26.92,1022.96,2034.09,3154.20,3144.12,3392.00,349.96,349.46,20.15,0000 0000 0000 0000 000000
2015-05-09 10:41:08,0.03,0.62,0.00,23.33,27.12,29.95,4.80,26.90,1022.95,2034.17,3154.04,3144.02,3392.00,350.19,349.93,20.17,0000 0000 0000 0000 000000
2015-05-09 10:46:09,-0.00,0.62,0.00,23.56,27.12,29.90,4.80,26.85,1022.94,2034.21,3154.05,3144.01,3392.00,350.46,349.68,20.20,0000 0000 0000 0000 000000
2015-05-09 10:51:10,-0.02,0.62,0.00,23.64,27.13,29.92,4.76,26.81,1022.90,2034.09,3154.00,3144.00,3391.96,350.09,349.17,20.23,0000 0000 0000 0000 000000
2015-05-09 10:56:12,0.02,0.62,0.00,23.63,27.15,29.95,4.84,26.86,1022.87,2034.12,3153.99,3144.00,3391.72,350.05,348.98,20.26,0000 0000 0000 0000 000000
2015-05-09 11:01:13,0.01,0.62,0.00,23.46,27.15,29.97,4.78,26.87,1022.90,2034.08,3153.93,3143.98,3391.29,350.01,349.29,20.29,0000 0000 0000 0000 000000
2015-05-09 11:06:14,0.02,0.62,0.00,23.57,27.15,29.95,4.86,26.87,1022.77,2034.08,3153.64,3143.95,3391.08,350.32,349.37,20.32,0000 0000 0000 0000 000000
2015-05-09 11:11:16,0.01,0.62,0.00,23.57,27.15,29.95,4.85,26.83,1022.76,2034.08,3153.18,3143.83,3391.00,350.22,349.15,20.35,0000 0000 0000 0000 000000
2015-05-09 11:16:17,0.03,0.62,0.00,23.48,27.15,30.01,4.84,26.82,1022.51,2034.05,3153.02,3143.23,3391.00,350.07,349.19,20.38,0000 0000 0000 0000 000000
2015-05-09 11:21:18,0.00,0.62,0.00,23.52,27.16,29.98,4.77,26.81,1022.50,2034.02,3152.98,3143.01,3391.00,349.95,349.06,20.41,0000 0000 0000 0000 000000
2015-05-09 11:26:19,0.01,0.62,0.00,23.53,27.17,29.98,4.82,26.80,1022.48,2034.01,3152.73,3143.00,3390.88,349.98,348.85,20.44,0000 0000 0000 0000 000000
2015-05-09 11:31:21,0.03,0.62,0.00,23.40,27.17,30.03,4.78,26.69,1022.48,2034.00,3152.08,3142.99,3390.35,349.82,349.14,20.47,0000 0000 0000 0000 000000
2015-05-09 11:36:22,0.03,0.62,0.00,23.28,27.17,30.04,4.80,26.86,1022.48,2034.00,3151.99,3142.66,3390.03,349.86,349.24,20.50,0000 0000 0000 0000 000000
2015-05-09 11:41:23,0.01,0.63,0.00,23.19,27.16,30.04,4.80,26.83,1022.48,2034.00,3151.97,3142.16,3390.00,350.05,349.51,20.53,0000 0000 0000 0000 000000
2015-05-09 11:46:24,0.00,0.63,0.00,23.10,27.15,29.99,4.75,26.76,1022.47,2034.00,3151.88,3142.17,3390.00,349.70,349.03,20.56,0000 0000 0000 0000 000000
2015-05-09 11:51:26,0.00,0.63,0.00,23.30,27.15,29.92,4.80,26.86,1022.33,2034.01,3151.78,3142.12,3390.00,349.71,349.00,20.59,0000 0000 0000 0000 000000
2015-05-09 11:56:27,0.02,0.63,0.00,23.49,27.15,29.85,4.84,26.93,1022.18,2034.01,3151.28,3142.03,3389.99,350.47,349.48,20.61,0000 0000 0000 0000 000000
2015-05-09 12:01:28,0.00,0.63,0.00,23.54,27.15,29.90,4.87,26.86,1022.00,2034.01,3151.04,3142.00,3389.93,350.44,349.12,20.64,0000 0000 0000 0000 000000
2015-05-09 12:06:29,0.02,0.63,0.00,23.59,27.15,29.92,4.81,26.81,1022.01,2034.01,3151.00,3141.99,3389.45,350.05,348.64,20.67,0000 0000 0000 0000 000000
2015-05-09 12:11:30,0.01,0.63,0.00,23.45,27.15,29.90,4.76,26.82,1021.99,2034.01,3150.86,3141.96,3389.06,350.24,349.25,20.70,0000 0000 0000 0000 000000
2015-05-09 12:16:32,0.04,0.63,0.00,23.44,27.15,29.83,4.85,26.73,1021.99,2034.00,3150.19,3141.59,3389.00,349.76,348.76,20.73,0000 0000 0000 0000 000000
2015-05-09 12:21:33,0.02,0.63,0.00,23.45,27.15,29.79,4.75,26.81,1021.99,2034.01,3150.00,3141.11,3388.99,349.77,348.90,20.76,0000 0000 0000 0000 000000
2015-05-09 12:26:34,0.00,0.63,0.00,23.38,27.15,29.76,4.78,26.75,1021.95,2034.00,3149.98,3141.02,3388.97,349.42,348.46,20.79,0000 0000 0000 0000 000000
2015-05-09 12:31:35,0.01,0.63,0.00,23.19,27.15,29.76,4.78,26.87,1021.78,2034.01,3149.75,3141.01,3388.92,350.27,349.55,20.82,0000 0000 0000 0000 000000
2015-05-09 12:36:37,0.03,0.63,0.00,22.98,27.14,29.85,4.80,26.92,1021.78,2034.01,3149.12,3141.00,3388.50,349.97,349.40,20.85,0000 0000 0000 0000 000000
2015-05-09 12:41:38,0.00,0.63,0.00,22.91,27.12,29.82,4.80,26.73,1021.56,2034.01,3149.00,3140.99,3388.06,349.76,349.00,20.88,0000 0000 0000 0000 000000
2015-05-09 12:46:39,0.00,0.63,0.00,22.87,27.11,29.76,4.90,26.77,1021.54,2034.02,3148.99,3140.98,3388.01,350.48,349.92,20.91,0000 0000 0000 0000 000000
2015-05-09 12:51:41,-0.00,0.63,0.00,23.10,27.10,29.76,4.78,26.77,1021.51,2034.04,3148.98,3140.97,3388.00,349.85,348.94,20.94,0000 0000 0000 0000 000000
2015-05-09 12:56:42,0.01,0.63,0.00,23.30,27.10,29.61,4.78,26.72,1021.50,2034.08,3148.95,3140.94,3388.00,350.00,349.12,20.97,0000 0000 0000 0000 000000
2015-05-09 13:01:43,0.04,0.63,0.00,23.39,27.10,29.67,4.83,26.76,1021.49,2034.16,3148.54,3140.82,3388.00,350.37,349.04,21.00,0000 0000 0000 0000 000000